Location: Blackmore
(51.6833°N, 0.3167°E)
Time: 11:23:32
(UTC+00:00)

Daily predictions for brighter satellites

Satellite Brightness Start Highest point End
(mag) Time Altitude Azimuth Time Altitude Azimuth Time Altitude Azimuth
Cosmos 2360 Rocket 3.2 20:18:25 10° NNW 20:23:37 35° NE 20:28:48 10° ESE
Cosmos 2016 Rocket 4.0 20:18:41 10° S 20:24:55 79° E 20:31:06 10° NNE
Cosmos 2173 Rocket 4.5 20:18:50 10° SSW 20:24:58 68° WNW 20:31:14 10° N
Cosmos 1461 3.9 20:23:17 10° SSE 20:26:04 20° ESE 20:28:50 10° ENE
CZ-4B R/B 3.5 20:22:17 10° S 20:27:56 74° WSW 20:33:33 10° NNW
CZ-4C R/B 2.5 20:24:59 10° WSW 20:29:21 64° NW 20:35:06 10° NE
CZ-4B R/B 4.3 20:26:11 10° SE 20:30:28 34° ENE 20:34:51 10° N
Cosmos 1992 Rocket 4.2 20:26:00 10° S 20:30:59 48° ESE 20:36:00 10° NNE
ISS -3.8 20:32:34 10° WSW 20:35:55 80° SSE 20:39:16 10° E
Cosmos 2219 Rocket 3.5 20:31:57 10° NNW 20:36:57 31° NE 20:41:56 10° ESE
Cosmos 1437 Rocket 3.6 20:37:05 10° SSE 20:40:09 28° E 20:43:16 10° NNE
SL-08 R/B 3.3 20:39:16 10° NNE 20:44:08 80° ESE 20:48:52 10° SSW
DEBRIS 3.3 20:43:00 10° WSW 20:45:53 60° SSE 20:54:02 10° E
Cosmos 1626 Rocket 3.6 20:41:57 10° N 20:46:20 73° ENE 20:50:42 10° SSE
Cosmos 1743 4.2 20:44:21 10° NW 20:46:54 25° W 20:49:27 10° SSW
Cosmos 2098 Rocket 4.3 20:44:23 10° SE 20:48:08 24° E 20:51:32 10° NE
Cosmos 1452 Rocket 4.5 20:43:11 10° SW 20:48:18 53° WNW 20:53:27 10° NNE
NOSS 3-3 (A) 3.7 20:43:46 10° SSW 20:48:58 70° SE 20:55:15 10° NE
Terra 3.0 20:48:06 10° SSW 20:52:30 40° W 20:56:56 10° NNW
Cosmos 2151 3.0 20:50:14 10° N 20:54:20 64° ENE 20:58:09 11° SSE
Cosmos 2322 Rocket 2.6 20:50:05 10° NNW 20:55:41 56° NE 21:00:46 12° SE
Cosmos 1486 Rocket 4.4 20:50:46 10° NNW 20:55:56 55° ENE 21:00:35 13° SE
Helios 1A Rocket 3.9 20:53:06 10° N 20:56:02 37° WNW 20:58:58 10° SW
Cosmos 1302 Rocket 4.4 20:51:54 10° SW 20:57:03 68° WNW 21:02:16 10° NNE
Cosmos 1607 4.2 20:51:59 10° SW 20:58:09 77° NW 21:04:29 10° NE
IRS-1C Rocket 4.4 20:53:40 11° SE 20:58:33 57° ENE 21:03:44 10° N
Cosmos 909 Rocket 4.0 20:53:09 10° SSW 20:59:24 76° SE 21:05:59 10° NE
Cosmos 2061 Rocket 4.0 20:53:45 10° S 20:59:59 89° ESE 21:06:21 10° N
Cosmos 2082 Rocket 2.5 20:55:25 10° SW 21:01:08 74° WNW 21:06:53 10° NNE
USA 306 2.1 20:59:24 10° W 21:02:25 56° NNW 21:04:23 10° ENE
CZ-4B R/B 2.4 21:09:42 15° SSE 21:12:25 83° ENE 21:15:55 10° NNW
USA 186 2.8 21:11:14 10° SSW 21:13:45 34° W 21:16:20 10° NNW
Okean O Rocket 2.5 21:12:02 10° S 21:16:08 44° W 21:20:16 10° NNW
Cosmos 2228 4.3 21:15:55 10° SW 21:19:46 38° WNW 21:23:38 10° N
Cosmos 1805 2.9 21:17:07 10° N 21:20:22 59° ENE 21:22:21 21° SSE
NOSS 3-3 (C) 3.8 21:15:32 10° SW 21:20:52 89° ESE 21:27:22 10° NE
Cosmos 2278 3.8 21:16:01 10° NNW 21:21:46 79° WSW 21:26:23 16° SSE
COSMOS 2428 4.3 21:19:52 10° NNW 21:24:41 27° NE 21:29:27 10° E
Meteor 1-5 Rocket 4.4 21:18:57 10° N 21:24:41 70° ENE 21:29:21 17° SSE
SL-16 R/B 2.6 21:20:39 10° NW 21:26:15 60° WSW 21:30:55 15° S
Okean 1-7 Rocket 3.7 21:23:00 10° N 21:27:27 63° ENE 21:30:35 19° SSE
Cosmos 1544 Rocket 3.7 21:23:25 10° SSW 21:27:45 73° WNW 21:32:05 10° N
CZ-2C R/B 1.9 21:27:14 25° SSE 21:28:38 69° ENE 21:31:24 10° N
NOSS 3 (A) 4.3 21:28:28 10° NW 21:30:42 56° SW 21:31:48 29° SSE
NOSS 3-4 (A) 3.8 21:25:56 10° NW 21:32:32 79° SW 21:38:39 18° SE
NOSS 3-4 (C) 3.9 21:26:34 10° NW 21:33:11 79° SW 21:39:18 18° SE
Cosmos-2242 4.4 21:34:03 17° ESE 21:35:36 22° E 21:38:45 10° NE
Cosmos 1891 Rocket 4.5 21:30:50 10° S 21:36:57 85° W 21:43:02 10° N
Okean-O 4.2 21:33:20 10° SSW 21:37:10 30° W 21:41:02 10° NNW
Cosmos 2034 Rocket 4.5 21:32:54 17° SSE 21:37:28 45° E 21:43:27 10° NNE
Cosmos 1933 3.5 21:37:11 10° SSW 21:40:56 65° WNW 21:44:45 10° N
Ariane Rocket 3.2 21:38:06 16° S 21:42:10 69° WSW 21:47:15 10° NNW
COSMOS 2406 3.5 21:36:32 10° SW 21:42:17 74° WNW 21:48:03 10° NNE
SPOT 3 Rocket 4.1 21:41:43 13° S 21:46:12 52° W 21:51:13 10° NNW
Nadezhda 4 Rocket 4.0 21:45:28 10° N 21:51:37 88° W 21:56:13 19° S
Cosmos 2333 Rocket 3.0 21:48:46 10° NW 21:54:07 43° WSW 21:58:17 16° S
Cosmos 1825 Rocket 3.5 21:52:18 10° NNW 21:56:40 82° W 21:59:17 24° S
Helios 1B rocket 3.4 21:55:11 21° ESE 21:56:40 28° ENE 21:59:44 10° N
Cosmos 1763 Rocket 3.7 21:53:12 19° S 21:56:44 51° ESE 22:01:49 10° NNE
Cosmos 1470 4.4 21:54:55 10° NNE 21:57:04 16° ENE 21:58:12 14° E
Cosmos 1536 3.7 21:54:23 10° N 21:57:45 33° ENE 21:59:12 24° ESE
Okean 1 3.0 21:56:18 28° S 21:58:01 67° E 22:01:36 10° NNE
Cosmos 1707 3.2 21:59:51 26° E 21:59:54 26° E 22:02:20 10° NNE
Cosmos 1461 3.2 21:58:23 10° WSW 22:02:02 55° NW 22:05:39 10° NE
Cosmos 1833 4.4 21:57:58 17° S 22:02:06 53° ESE 22:07:34 10° NE
Cosmos 1953 Rocket 3.5 21:58:23 10° N 22:02:45 70° ENE 22:04:56 28° SSE
Cosmos 44 3.6 21:58:01 10° NW 22:03:27 73° NE 22:06:56 22° SE
Cosmos 990 Rocket 3.9 21:58:40 10° NNW 22:03:52 89° ENE 22:06:54 26° SSE
Cosmos 2360 Rocket 2.6 22:02:20 10° NW 22:07:53 55° WSW 22:11:23 22° S
CZ-4B R/B 4.4 22:05:27 15° SSW 22:09:03 38° W 22:13:35 10° NNW
Cosmos 2322 4.4 22:04:17 10° NNW 22:09:50 49° NE 22:13:47 19° ESE
Cosmos 2195 Rocket 4.5 22:03:35 10° N 22:09:51 88° E 22:13:53 23° S
ISS -3.9 22:09:22 10° W 22:12:43 83° S 22:14:19 28° ESE
USA 290 2.1 22:12:10 29° SSW 22:13:38 84° WNW 22:16:48 10° NNE
BREEZE-M DEB (TANK) 2.3 22:11:45 10° W 22:13:12 29° WSW 22:13:12 29° WSW
Cosmos 2026 Rocket 4.0 22:07:49 10° N 22:14:15 81° E 22:18:17 24° SSE
Cosmos 2058 Rocket 3.5 22:14:25 30° SE 22:16:05 46° E 22:20:14 10° NNE
CZ-4C R/B 4.3 22:14:14 10° WNW 22:18:40 29° N 22:24:13 10° NE
Helios 1A 3.0 22:17:20 10° NNE 22:21:12 54° ESE 22:22:30 36° SSE
Cosmos 2219 Rocket 2.3 22:15:43 10° NW 22:21:20 67° WSW 22:24:29 27° S
Cosmos 1975 4.1 22:21:05 10° N 22:24:14 26° ENE 22:25:24 22° E
Cosmos 2098 Rocket 4.1 22:20:59 11° SSW 22:25:18 43° WNW 22:29:14 10° N
KORONAS-FOTON 4.1 22:25:06 37° ESE 22:25:34 39° E 22:28:45 10° NNE
Cosmos 1076 Rocket 3.9 22:21:47 10° NNW 22:25:58 56° W 22:28:03 27° SSW
USA 306 3.5 22:27:30 10° WNW 22:28:32 19° NW 22:28:32 19° NW
RESURS DK-1 2.9 22:26:55 10° NNW 22:30:48 49° NE 22:32:35 28° ESE
ARIANE 5 R/B 3.3 22:32:16 27° ESE 22:34:16 44° ENE 22:38:32 10° N
ALOS 2 3.5 22:33:58 24° ESE 22:35:57 38° ENE 22:40:02 10° N
Cosmos 2322 Rocket 3.4 22:34:31 10° NW 22:39:27 31° WSW 22:42:34 19° SSW
Cosmos 1766 3.2 22:42:00 10° NNW 22:45:09 52° W 22:45:46 44° SW
Cosmos 372 Rocket 3.9 22:40:26 10° NNW 22:45:35 90° WSW 22:47:53 34° SSE
Cosmos 1271 Rocket 2.9 22:46:13 41° ESE 22:46:27 42° E 22:49:41 10° NNE
Cosmos 1842 2.9 22:47:39 51° ESE 22:47:46 52° E 22:50:52 10° NNE
Cosmos 1726 Rocket 4.5 22:49:27 18° SW 22:52:01 39° WNW 22:55:51 10° N
Meteor 2-9 Rocket 4.2 22:47:57 10° N 22:53:20 68° ENE 22:55:56 32° SSE
Spot 4 4.0 22:51:57 33° SE 22:54:00 67° ENE 22:58:46 10° N
Cosmos 540 Rocket 3.8 22:52:54 17° SW 22:56:55 65° WNW 23:02:04 10° NNE
Cosmos 2237 Rocket 3.0 22:52:48 10° NNW 22:58:17 45° NE 23:02:17 18° ESE
Aureole 1 Rocket 4.2 22:53:44 10° NNW 22:59:22 60° WSW 23:02:46 29° S
BREEZE-M DEB (TANK) 4.4 22:42:57 10° SW 23:00:30 63° SSE 23:04:43 10° ENE
Cosmos 1092 Rocket 4.3 22:55:36 10° NNW 23:01:38 58° W 23:05:07 26° SSW
CZ-2C R/B 3.9 22:58:57 17° ESE 23:02:12 32° ENE 23:06:45 10° N
Cosmos 1980 4.3 22:56:58 10° NNW 23:02:30 51° NE 23:06:13 20° ESE
ARGOS Delta rocket 4.4 22:59:29 10° NNE 23:04:31 52° E 23:06:31 34° SSE
Cosmos 1937 Rocket 3.4 23:02:01 10° NNW 23:07:12 78° ENE 23:09:26 34° SE
Meteor 2-2 Rocket 4.5 23:05:51 24° SSW 23:09:22 67° WNW 23:15:10 10° N
COSMOS 2428 2.7 23:03:51 10° NNW 23:09:34 81° WSW 23:12:10 34° SSE
Geosat 4.2 23:06:25 10° NNE 23:11:25 69° NW 23:15:10 18° SW
NOSS 0 Rocket 3.9 23:05:56 10° NNW 23:12:09 87° ENE 23:15:26 30° SSE
Cosmos-2242 3.8 23:10:18 24° SW 23:12:20 42° WNW 23:16:17 10° N
Cosmos 2227 Rocket 4.1 23:11:04 13° ESE 23:12:27 14° E 23:15:14 10° ENE
Meteor 1-11 Rocket 3.9 23:07:28 10° N 23:13:09 65° ENE 23:15:45 32° SSE
Cosmos 468 Rocket 4.0 23:10:30 26° SSW 23:13:33 80° WNW 23:18:50 10° NNE
MetOp-A 4.3 23:18:10 30° SE 23:20:19 54° ENE 23:24:51 10° N
Cosmos 1812 Rocket 3.6 23:25:18 45° SSE 23:26:29 66° E 23:30:54 10° NNE
Cosmos 1238 Rocket 4.1 23:25:54 25° ESE 23:26:47 28° E 23:30:28 10° NNE
Helios 1B rocket 3.5 23:29:08 25° WSW 23:29:38 26° W 23:32:38 10° NW
Cosmos 1470 3.1 23:28:03 10° NNW 23:31:10 39° W 23:31:24 38° WSW
USA 234 3.6 23:25:38 10° ENE 23:31:52 44° SE 23:34:29 31° S
Cosmos 1707 4.4 23:31:20 15° W 23:32:09 16° WNW 23:34:04 10° NNW
SeaSat 1 3.7 23:28:37 13° ESE 23:32:37 38° NE 23:37:08 10° NNW
Cosmos 1536 4.3 23:29:54 10° NW 23:32:49 22° W 23:33:43 20° WSW
CZ-2C R/B 3.8 23:27:54 10° NNE 23:33:29 48° E 23:35:48 32° SSE
ACS3 Solar Sail 3.4 23:29:53 10° NE 23:34:19 21° E 23:37:20 15° ESE
Helios 1B 4.5 23:30:26 10° NNE 23:34:41 71° ESE 23:35:46 48° S
Meteor 1-27 Rocket 4.2 23:32:34 31° SSE 23:34:56 49° E 23:40:27 10° NNE
NOSS 8 (E) 4.4 23:32:35 10° NW 23:35:29 60° NE 23:35:47 56° ENE
ATLAS 2AS CENTAUR R/B 4.3 23:29:57 10° NW 23:36:07 35° NNE 23:42:15 10° E
Cosmos 2221 2.4 23:35:23 45° SSW 23:36:35 75° WNW 23:40:47 10° N
BlueWalker 3 4.4 23:41:18 10° E 23:41:18 10° E 23:41:18 10° E
CZ-2C R/B 4.0 23:35:57 10° N 23:40:21 61° WNW 23:42:14 33° SW
Cosmos 1898 Rocket 4.0 23:35:37 10° NW 23:40:33 45° WSW 23:42:14 34° SSW
Cosmos 2279 Rocket 4.2 23:37:48 27° SSW 23:41:21 64° WNW 23:47:36 10° N
Cosmos 2297 Rocket 2.5 23:43:29 36° SSE 23:45:26 52° ESE 23:50:54 10° NE
ISS -1.6 23:46:16 10° W 23:47:15 17° W 23:47:15 17° W
Meteor 2-20 4.4 23:46:32 34° S 23:49:19 75° E 23:55:24 10° NNE
NOSS 8 (F) 4.1 23:48:40 10° NW 23:51:36 78° NE 23:51:36 78° NE
SAR-Lupe-2 3.9 23:53:11 43° WSW 23:53:15 43° W 23:56:27 10° NNW
Cosmos 2322 4.5 23:48:42 10° NW 23:53:53 37° WSW 23:55:40 30° SW
Meteor 2-10 Rocket 4.3 23:48:37 10° N 23:53:59 51° ENE 23:57:07 25° SE
GP-B 3.0 23:50:24 10° N 23:54:47 82° W 23:56:01 47° SSW
